Flag for Slovenia Weather past 2 weeks in Kranj, Slovenia

Now
64 °F

Scattered clouds.


Feels Like: 64 °F
Forecast: 56 / 75 °F
Wind: 2 mph from North

Location: Ljubljana Airport / Brnik

Current Time: Jul 23, 2014 at 10:10:05 PM

Latest Report: Jul 23, 2014 at 9:00 PM


Visibility: N/A

Pressure: 29.89 "Hg

Humidity: 88%

Dew point: 61 °F

Location of KranjLocation

Historic Weather in Kranj — Graph

°F

Kranj temperature yesterday

Maximum temperature yesterday: 68 °F (at 1:00 PM)
Minimum temperature yesterday: 57 °F (at 2:00 AM)
Average temperature yesterday: 62 °F

Past Weeks' High & Low Weather Summary

 TemperatureHumidityPressure
High86 °F (Jul 19, 3:00 PM)100% (Jul 9, 2:00 AM)30.15 "Hg (Jul 9, 2:00 AM)
Low54 °F (Jul 11, 3:30 AM)37% (Jul 18, 2:00 PM)29.68 "Hg (Jul 9, 2:30 AM)
Average67 °F79%29.94 "Hg
* Reported Jul 8 8:00 PM — Jul 23 8:30 PM, Kranj, Weather by CustomWeather, © 2014

Note: Actual official high and low records may vary slightly from our data, if they occured in-between our weather recording intervals... More about our weather records

Advertising

Kranj weather history for previous 24 hours

 ConditionsComfort  
Time TempWeatherWind HumidityBarometerVisibility
8:30 PM
Jul 23
68 °FScattered clouds.No wind78%29.89 "HgN/A
8:00 PM70 °FScattered clouds.2 mph73%29.89 "HgN/A
7:30 PM72 °FScattered clouds.1 mph65%29.89 "HgN/A
7:00 PM70 °FScattered showers. Scattered clouds.2 mph69%29.89 "HgN/A
6:30 PM70 °FSprinkles. Broken clouds.6 mph69%29.89 "HgN/A
6:00 PM75 °FThundershowers. Scattered clouds.7 mph50%29.86 "HgN/A
5:30 PM77 °FScattered clouds.8 mph51%29.86 "HgN/A
5:00 PM77 °FScattered clouds.15 mph51%29.86 "HgN/A
4:30 PM79 °FScattered clouds.5 mph48%29.86 "HgN/A
4:00 PM79 °FScattered clouds.6 mph45%29.86 "HgN/A
3:30 PM77 °FScattered clouds.6 mph51%29.86 "HgN/A
3:00 PM75 °FScattered showers. Partly sunny.3 mph54%29.86 "HgN/A
1:00 PM81 °FScattered clouds.2 mph45%29.86 "HgN/A
12:30 PM79 °FScattered clouds.2 mph51%29.89 "HgN/A
12:00 PM77 °FScattered clouds.5 mph51%29.86 "HgN/A
11:30 AM75 °FPassing clouds.5 mph65%29.86 "HgN/A
11:00 AM75 °FPassing clouds.1 mph69%29.89 "HgN/A
10:00 AM72 °FPassing clouds.3 mph78%29.86 "HgN/A
8:00 AM64 °FBroken clouds.1 mph94%29.89 "Hg5 mi
7:30 AM64 °FPartly sunny.1 mph94%29.89 "Hg4 mi
7:00 AM63 °FBroken clouds.2 mph100%29.89 "Hg4 mi
6:30 AM63 °FFog.No wind100%29.89 "Hg2 mi
6:00 AM63 °FFog.1 mph100%29.86 "Hg2 mi
5:30 AM63 °FPartly cloudy.No wind100%29.86 "Hg4 mi
5:00 AM63 °FLight rain. Fog.No wind100%29.86 "Hg4 mi
4:30 AM63 °FLight rain. Fog.1 mph100%29.86 "Hg4 mi
4:00 AM63 °FLight rain. Fog.1 mph100%29.86 "Hg4 mi
3:30 AM63 °FLight rain. Fog.1 mph100%29.86 "Hg4 mi
3:00 AM63 °FLight rain. Fog.No wind100%29.86 "Hg4 mi
2:30 AM63 °FLight rain. Light fog.No wind100%29.86 "Hg4 mi
2:00 AM64 °FLight rain. Fog.1 mph94%29.86 "Hg3 mi
1:00 AM64 °FLight rain. Dense fog.1 mph94%29.89 "Hg2 mi
Weather by CustomWeather, © 2014

See weather overviewHow to use our weather pages